#timestamp,LO_Frequency,Hit 
1503709215.2,286046997.0,N
1503709235.9,286046997.3,N
1503709255.7,286046996.6,N
1503709275.5,286046995.5,N
1503709295.4,286046993.3,N
1503709315.2,286046994.3,N
1503709335.0,286046994.7,N
1503709335.9,286046994.7,N
1503709355.8,286046996.1,N
1503709375.6,286046995.0,N
1503709395.4,286046997.6,N
1503709415.3,286046996.2,N
1503709435.1,286047000.4,N
1503709455.8,286047002.8,N
1503709475.7,286047005.9,N
1503709495.5,286047001.9,N
1503709515.3,286047001.5,N
1503709535.2,286047002.1,N
1503709555.9,286047000.1,N
1503709575.7,286047002.6,N
1503709595.6,286047003.2,N
1503709615.4,286046999.8,N
1503709635.2,286047000.5,N
1503709655.0,286046999.6,N
1503709655.9,286046999.6,N
1503709675.8,286046996.7,N
1503709695.6,286046995.6,N
1503709715.4,286046996.3,N
1503709735.3,286046993.9,N
1503709755.1,286046994.7,N
1503709775.8,286046994.7,N
1503709795.7,286046993.8,N
1503709815.5,286046993.3,N
1503709835.3,286046996.3,N
1503709855.2,286046992.6,N
1503709875.9,286046990.3,N
1503709895.7,286046993.2,N
1503709915.6,286046991.5,N
1503709935.4,286046989.0,N
1503709955.2,286046989.7,N
1503709975.0,286046988.9,N
1503709976.0,286046988.9,N
1503709995.8,286046991.3,N
1503710015.6,286046988.1,N
1503710035.4,286046987.9,N
1503710055.3,286046991.3,N
1503710075.1,286046991.9,N
1503710095.8,286046992.1,N
1503710115.7,286046991.8,N
1503710135.5,286046996.1,N
1503710155.3,286046993.7,N
1503710175.2,286046995.0,N
1503710195.9,286046997.5,N
1503710215.7,286046999.5,N
1503710235.6,286046999.1,N
1503710255.4,286046999.5,N
1503710275.2,286046995.0,N
1503710295.0,286046995.7,N
1503710296.0,286046995.7,N
1503710315.8,286046995.8,N
1503710335.6,286046996.0,N
1503710355.4,286046996.6,N
1503710375.3,286046997.3,N
1503710395.1,286046996.7,N
1503710415.8,286046999.2,N
1503710435.7,286047001.2,N
1503710455.5,286047000.5,N
1503710475.3,286046998.1,N
1503710495.2,286046998.2,N
1503710515.9,286046999.7,N
1503710535.7,286047000.2,N
1503710555.6,286047000.3,N
1503710575.4,286046999.1,N
1503710595.2,286047000.1,N
1503710615.1,286047001.1,N
1503710616.0,286047001.1,N
1503710635.8,286047000.3,N
1503710655.6,286047001.5,N
1503710675.5,286047000.4,N
1503710695.3,286047000.4,N
1503710715.1,286046999.6,N
1503710735.8,286046994.9,N
1503710755.7,286046997.9,N
1503710775.5,286046995.5,N
1503710795.3,286046996.7,N
1503710815.2,286046996.1,N
1503710835.0,286046995.1,N
1503710835.9,286046995.1,N
1503710855.7,286046998.4,N
1503710875.6,286047000.1,N
1503710895.4,286047001.0,N
1503710915.2,286047001.1,N
1503710935.1,286047001.2,N
1503710936.0,286047001.2,N
1503710955.8,286047000.0,N
1503710975.6,286047002.6,N
1503710995.5,286046999.7,N
1503711015.3,286047000.6,N
1503711035.1,286047000.5,N
1503711055.9,286047003.7,N
1503711075.7,286047004.1,N
1503711095.5,286047002.8,N
1503711115.3,286047001.0,N
1503711135.2,286047001.1,N
1503711155.0,286047002.4,N
1503711155.9,286047002.4,N
1503711175.7,286047002.5,N
1503711195.6,286047004.0,N
1503711215.4,286047002.0,N
1503711235.2,286047001.7,N
1503711255.1,286047000.1,N
1503711256.0,286047000.1,N
1503711275.8,286047006.7,N
1503711295.6,286047007.5,N
1503711315.5,286047004.1,N
1503711335.3,286047005.9,N
1503711355.1,286047005.9,N
1503711375.9,286047004.4,N
1503711395.7,286046999.8,N
1503711415.5,286047004.4,N
1503711435.4,286047002.6,N
1503711455.2,286047003.1,N
1503711475.0,286047003.8,N
1503711475.9,286047003.8,N
1503711495.8,286047004.2,N
1503711515.6,286047003.0,N
1503711535.4,286047001.5,N
1503711555.2,286047001.3,N
1503711575.1,286047005.2,N
1503711576.0,286047005.2,N
1503711595.8,286047002.1,N
1503711615.6,286047001.3,N
1503711635.5,286047001.6,N
1503711655.3,286047000.5,N
1503711675.1,286046999.3,N
1503711695.9,286046999.1,N
1503711715.7,286046999.3,N
1503711735.5,286047001.2,N
1503711755.4,286046998.5,N
1503711775.2,286046998.8,N
1503711795.0,286047002.6,N
1503711795.9,286047002.6,N
1503711815.8,286047004.2,N
1503711835.6,286047002.1,N
1503711855.4,286047005.5,N
1503711875.2,286047000.0,N
1503711895.1,286047000.5,N
1503711896.0,286047000.5,N
1503711915.8,286047000.6,N
1503711935.6,286047004.7,N
1503711955.5,286047005.7,N
1503711975.3,286047004.6,N
1503711995.1,286047004.6,N
1503712015.9,286047002.9,N
1503712035.7,286047004.2,N
1503712055.5,286047004.3,N
1503712075.4,286047003.4,N
1503712095.2,286047004.1,N
1503712115.0,286047000.8,N
1503712115.9,286047000.8,N
1503712135.8,286047002.7,N
1503712155.6,286047001.7,N
1503712175.4,286047002.0,N
1503712195.3,286046998.1,N
1503712215.1,286046999.6,N
1503712216.0,286046999.6,N
1503712235.8,286046997.0,N
1503712255.7,286046997.7,N
1503712275.5,286046996.7,N
1503712295.3,286046997.2,N
1503712315.1,286046994.9,N
1503712335.9,286046998.4,N
1503712355.7,286046999.4,N
1503712375.5,286046993.3,N
1503712395.4,286046994.8,N
1503712415.2,286046991.7,N
1503712435.0,286046992.2,N
1503712435.9,286046992.2,N
1503712455.8,286046992.4,N
1503712475.6,286046991.0,N
1503712495.4,286046987.1,N
1503712515.3,286046988.7,N
1503712535.1,286046992.8,N
1503712536.0,286046992.8,N
1503712555.8,286046992.9,N
1503712575.7,286046992.6,N
1503712595.5,286046990.1,N
1503712615.3,286046992.5,N
1503712635.2,286046990.3,N
1503712655.9,286046990.2,N
1503712675.7,286046991.9,N
1503712695.6,286046995.8,N
1503712715.4,286046995.7,N
1503712735.2,286046998.0,N
1503712755.0,286046993.8,N
1503712755.9,286046993.8,N
1503712775.8,286046997.6,N
1503712795.6,286046998.0,N
